Regional Weather Roundup
Issued by NWS

Home | Current Version | Previous Version | Text Only | Print | Product List | Glossary Off
Versions: 1 2 3 4 5 6 7 8 9 10 11 12 13 14 15 16 17 18 19 20 21 22 23 24 25 26 27 28 29 30 31 32 33 34 35 36 37 38 39 40 41 42 43 44 45 46 47 48 49 50

000
ASUS43 KMKX 090500
RWRWI

WISCONSIN REGIONAL WEATHER ROUNDUP
NATIONAL WEATHER SERVICE MILWAUKEE/SULLIVAN WI
1100 PM CST MON FEB 08 2016

NOTE: "FAIR" INDICATES FEW OR NO CLOUDS BELOW 12,000 FEET WITH NO
SIGNIFICANT WEATHER AND/OR OBSTRUCTIONS TO VISIBILITY.

WIZ001-002-006>008-014>016-023>028-090600-
NORTHWEST WISCONSIN

CITY           SKY/WX    TMP DP  RH WIND       PRES   REMARKS
SUPERIOR ARPT  CLOUDY     8  -1  66 N13       30.01R WCI  -8
ASHLAND        CLOUDY    10   7  87 NW9       29.91S FOG     WCI  -3
HAYWARD        LGT SNOW   7   1  76 NW9       29.89S WCI  -7
SIREN          PTCLDY     8   0  69 N14G20    29.97R WCI  -9
CUMBERLAND     MOCLDY     9   0  66 N12       29.90R WCI  -6
RICE LAKE      MOCLDY     9   2  74 NW8       29.91S WCI  -4
CHETEK         CLOUDY     8   1  73 MISG      29.90S
LADYSMITH      CLOUDY    10   4  78 NW13      29.87S WCI  -6
EAU CLAIRE     NOT AVBL
MENOMONIE      CLOUDY    12   3  67 NW13G18   29.92S WCI  -3
NEW RICHMOND   CLOUDY    11   2  69 NW17      29.94S WCI  -7
OSCEOLA        CLOUDY    11   2  66 NW17G23   30.00R WCI  -6
$$

WIZ003>005-009-010-017-018-090600-
NORTH CENTRAL WISCONSIN

CITY           SKY/WX    TMP DP  RH WIND       PRES   REMARKS
MANITOWISH WTR LGT SNOW  10   7  85 NW6       29.75F WCI   1
ARBOR VITAE    LGT SNOW  11   8  85 NW5       29.74F VSB 1   WCI   3
WOODRUFF       LGT SNOW  11   8  85 NW5       29.74F VSB 1   WCI   3
RHINELANDER    LGT SNOW  10   5  80 NW7       29.73F WCI  -1
EAGLE RIVER    FLURRIES  11   6  78 NW9       29.72S WCI  -2
LAND O LAKES   LGT SNOW  13   9  84 N10       29.73S WCI  -1
PHILLIPS       LGT SNOW   8   3  80 NW6G16    29.79F WCI  -2
TOMAHAWK       FLURRIES  10   5  80 NW9       29.77S WCI  -4
MEDFORD        FLURRIES   9   4  79 NW13      29.78S WCI  -7
MERRILL        CLOUDY    11   6  79 NW6       29.78S WCI   1
$$

WIZ029-030-035-036-043>047-090600-
CENTRAL WISCONSIN

CITY           SKY/WX    TMP DP  RH WIND       PRES   REMARKS
WAUSAU         CLOUDY    13   5  70 NW10      29.76F WCI   0
MOSINEE        FLURRIES  12   9  85 NW9       29.79S WCI   0
MARSHFIELD     LGT SNOW  11   4  73 NW16      29.79S WCI  -6
STEVENS POINT  LGT SNOW  12   7  82 NW8       29.79S WCI   0
WAUPACA        LGT SNOW  19  13  78 NW12      29.78S WCI   7
WAUTOMA        NOT AVBL
WISC RAPIDS    FLURRIES  13   5  70 N14       29.82S WCI  -2
CAMP DOUGLAS   FLURRIES  12  12 100 NW14      29.83S WCI  -3
$$

WIZ011>013-019>022-031-037>040-048>050-090600-
NORTHEAST WISCONSIN

CITY           SKY/WX    TMP DP  RH WIND       PRES   REMARKS
ANTIGO         CLOUDY    12   7  81 NW13      29.72F WCI  -3
SHAWANO        FLURRIES  19  11  69 N8        29.77S WCI   9
OCONTO         CLOUDY    18  14  85 N8        29.76S WCI   8
STURGEON BAY   CLOUDY    18   9  68 N18G28    29.75S WCI   2
GREEN BAY      CLOUDY    19  11  70 NW14      29.75S WCI   6
MANITOWOC      NOT AVBL
APPLETON       FLURRIES  18   9  68 NW12      29.74R WCI   5
CLINTONVILLE   LGT SNOW  19  12  73 N9        29.77F WCI   9
OSHKOSH        CLOUDY    19  11  70 NW10      29.75S WCI   7
$$

WIZ032>034-041-042-053>061-090600-
SOUTHWEST WISCONSIN

CITY           SKY/WX    TMP DP  RH WIND       PRES   REMARKS
LA CROSSE      LGT SNOW  14   8  77 NW15      29.89S WCI  -1
SPARTA         LGT SNOW  14  10  86 NW7       29.87S WCI   3
VIROQUA        CLOUDY    12   9  85 NW10      29.82S WCI  -1
BOSCOBEL       LGT SNOW  16   9  74 NW8       29.87S WCI   5
PRAIRIE DU CHI MIX PCPN  15   9  77 NW8       29.89R WCI   4
PLATTEVILLE    CLOUDY    15  10  83 NW14      29.82S WCI   0
$$

WIZ056-057-062-063-064-067-068-090600-
SOUTH CENTRAL WISCONSIN

CITY           SKY/WX    TMP DP  RH WIND       PRES   REMARKS
REEDSBURG      FLURRIES  13   9  81 NW7G18    29.81S WCI   3
BARABOO/DELLS  LGT SNOW  14   9  80 NW12      29.79F WCI   0
LONE ROCK      LGT SNOW  15   9  76 NW9       29.84S WCI   3
MINERAL POINT  LGT SNOW  16  12  86 NW9       29.80S WCI   4
MADISON        FLURRIES  14   9  80 NW12      29.78F WCI   0
MIDDLETON      CLOUDY    17  12  82 NW10      29.80R WCI   4
WATERTOWN      CLOUDY    17  14  90 NW8       29.76S WCI   6
MONROE         LGT SNOW  18  10  73 NW12G21   29.77F WCI   5
JANESVILLE     CLOUDY    21  12  68 NW13      29.78S WCI   9
$$

WIZ051-052-058>065-066-070>072-090600-
SOUTHEAST WISCONSIN

CITY           SKY/WX    TMP DP  RH WIND       PRES   REMARKS
MILWAUKEE      LGT SNOW  20  14  77 NW17G25   29.72S WCI   5
WAUKESHA       LGT SNOW  18  14  86 NW16      29.74S WCI   3
MILWAUKEE/TIMM LGT SNOW  19  14  79 NW15G21   29.74S WCI   5
RACINE         LGT SNOW  21  15  78 NW12      29.73S WCI   9
BURLINGTON     LGT SNOW  18  14  84 NW14      29.74S WCI   4
KENOSHA        LGT SNOW  20  15  81 NW14      29.73R WCI   7
FOND DU LAC    LGT SNOW  18  13  80 NW9       29.75S WCI   7
SHEBOYGAN      LGT SNOW  21  15  78 N7        29.72S WCI  12
WEST BEND      CLOUDY    19  14  79 NW13G18   29.73S WCI   7
JUNEAU         LGT SNOW  16  12  85 NW13      29.76S WCI   2
$$

LSZ147-162-090600-
LAKE SUPERIOR

STATION/POSITION TIME  TEMP    WIND        PRES    WAVE
                       AIR SEA DIR/SP/G            HT/PER
                 (UTC) (F)     (DEG/KT/KT) (MB)    (FT/S)
DEVILS ISLAND    0400   14     350/ 23/ 27 1014.3S
PORT WING        0409   13     330/ 18/ 25 1014.6S
SAXON HARBOR     0440   16                 1011.5F
$$

LMZ867-665-643>646-090600-
LAKE MICHIGAN

STATION/POSITION TIME  TEMP    WIND        PRES    WAVE
                       AIR SEA DIR/SP/G            HT/PER
                 (UTC) (F)     (DEG/KT/KT) (MB)    (FT/S)
CHAMBERS ISLAND  0400   18     320/ 16/ 21 1007.8R
NORTHPORT PIER   0403   20     330/ 20     1007.1S
ALGOMA LAKESHORE 0411          320/ 13/ 17   N/A
KEWAUNEE LAKESHO 0400   20     340/ 10/ 14 1006.5R
SHEBOYGAN LAKESH 0400   24     350/ 23/ 24 1007.5R
PORT WASHINGTON  0400   22     310/  9/ 15 1007.8R
MILWAUKEE LAKESH 0410   22     300/ 14/ 19   N/A
KENOSHA   LAKESH 0400   22     300/ 10/ 19 1006.8S
$$

TC  - TEMPERATURE IN CELSIUS
VSB - VISIBILITY IN STATUTE MILES
WCI - WIND CHILL INDEX
HX  - HEAT INDEX




USA.gov is the U.S. government's official web portal to all federal, state and local government web resources and services.